Location: Viterbo
(42.4170°N, 12.1000°E)
Time: 21:43:05
(UTC+01:00)

XW-2C - Visible Passes

Search period start: 20 January 2020 00:00
Search period end: 30 January 2020 00:00
Orbit: 508 x 528 km, 97.5° (Epoch: 20 January)

Date Brightness Start Highest point End Pass type
(mag) Time Alt. Az. Time Alt. Az. Time Alt. Az.
20 Jan ? 06:05:40 10° NNE 06:09:25 70° ESE 06:13:06 10° S visible
20 Jan ? 18:21:57 10° SW 18:24:25 16° W 18:26:53 10° NW visible
21 Jan ? 05:51:43 10° NNE 05:55:20 45° E 05:58:54 10° S visible
21 Jan ? 18:07:10 10° SSW 18:10:16 23° W 18:13:23 10° NW visible
22 Jan ? 05:37:53 10° NNE 05:41:13 30° E 05:44:31 10° SSE visible
22 Jan ? 17:52:39 10° SSW 17:56:09 34° W 17:59:38 10° NNW visible
23 Jan ? 05:24:12 10° NE 05:27:05 21° E 05:29:55 10° SE visible
23 Jan ? 06:58:01 10° NNW 07:01:09 26° WNW 07:04:17 10° SW visible
23 Jan ? 17:38:20 10° S 17:42:02 51° W 17:45:46 10° NNW visible
24 Jan ? 05:10:49 10° ENE 05:12:54 14° E 05:14:58 10° SE visible
24 Jan ? 06:43:42 10° N 06:47:11 37° WNW 06:50:38 10° SW visible
25 Jan ? 06:29:30 10° N 06:33:10 57° WNW 06:36:49 10° SSW visible
26 Jan ? 06:15:23 10° NNE 06:19:08 87° WNW 06:22:50 10° SSW visible
26 Jan ? 18:32:34 10° WSW 18:34:15 12° W 18:35:56 10° WNW visible
27 Jan ? 06:01:21 10° NNE 06:05:04 61° E 06:08:44 10° S visible
27 Jan ? 18:17:24 10° SW 18:20:04 18° W 18:22:44 10° NW visible
28 Jan ? 05:47:26 10° NNE 05:50:58 39° E 05:54:28 10° S visible
28 Jan ? 18:02:42 10° SSW 18:05:55 26° W 18:09:08 10° NW visible
29 Jan ? 05:33:38 10° NE 05:36:50 27° E 05:40:01 10° SSE visible
29 Jan ? 17:48:14 10° SSW 17:51:47 38° W 17:55:21 10° NNW visible
